Weather History for KTBN - May, 2014

Change the Weather History Date:

Saturday, May 10, 2014

  Actual Average Record
Temperature  
Mean Temperature 68 °F -  
Max Temperature 83 °F 73 °F 87 °F (2005)
Min Temperature 53 °F 55 °F 42 °F (1997)
Cooling Degree Days 3    
Growing Degree Days 18 (Base 50)    
Moisture  
Dew Point 62 °F    
Average Humidity 76    
Maximum Humidity 100    
Minimum Humidity 47    
Precipitation  
Precipitation 0.00 in - - ()
Sea Level Pressure  
Sea Level Pressure 29.89 in    
Wind  
Wind Speed 6 mph (SSE)    
Max Wind Speed 13 mph    
Max Gust Speed 23 mph    
Visibility 10 miles    
Events      
Averages and records for this station are not official NWS values.
T = Trace of Precipitation, MM = Missing Value Source: NWS Daily Summary

Daily Weather History Graph

Daily Weather History Graph

Search for Another Location

Airport or City:

Trip Planner

Search our weather history database for the weather conditions in past years. The results will help you decide how hot, cold, wet, or windy it might be!

Date:

Astronomy

May. 10, 2014 Rise Set
Actual Time 6:03 AM CDT 8:07 PM CDT
Civil Twilight 5:34 AM CDT 8:36 PM CDT
Nautical Twilight 4:59 AM CDT 9:11 PM CDT
Astronomical Twilight 4:20 AM CDT 9:50 PM CDT
Moon 4:07 PM CDT (5/10) 3:31 AM CDT (5/10)
Length of Visible Light 15h 01m
Length of Day
14h 03m
Waxing Gibbous, 82% of the Moon is Illuminated
May 10
Waxing Gibbous
May 14
Full
May 21
Last Quarter
May 28
New
Jun 5
First Quarter

Hourly Weather History & Observations

Time (CDT) Temp. Heat Index Dew Point Humidity Pressure Visibility Wind Dir Wind Speed Gust Speed Precip Events Conditions
12:58 AM 56.5 °F - 56.5 °F 100% 29.93 in 9.0 mi WSW 3.5 mph - N/A   Mostly Cloudy
1:58 AM 55.8 °F - 55.8 °F 100% 29.91 in 10.0 mi WSW 2.3 mph - N/A   Partly Cloudy
2:58 AM 55.8 °F - 55.8 °F 100% 29.90 in 10.0 mi Calm Calm - N/A   Partly Cloudy
3:59 AM - - - N/A% - - ESE 3.5 mph - N/A   Unknown
4:58 AM 55.6 °F - 55.6 °F 100% 29.89 in 10.0 mi SE 3.5 mph - N/A   Clear
5:58 AM 53.4 °F - 53.4 °F 100% 29.90 in 10.0 mi SSE 4.6 mph - N/A   Clear
6:58 AM 56.1 °F - 56.1 °F 100% 29.92 in 10.0 mi SSE 4.6 mph - N/A   Clear
7:58 AM 62.2 °F - 59.2 °F 90% 29.93 in 10.0 mi SE 3.5 mph - N/A   Clear
8:58 AM 67.3 °F - 60.3 °F 78% 29.94 in 10.0 mi ESE 9.2 mph - N/A   Clear
9:58 AM 71.1 °F - 62.2 °F 74% 29.95 in 10.0 mi ESE 9.2 mph - N/A   Partly Cloudy
10:58 AM 72.1 °F - 66.2 °F 82% 29.96 in 10.0 mi East 8.1 mph - N/A   Partly Cloudy
11:23 AM 73.4 °F - 66.2 °F 78% 29.95 in 10.0 mi SE 8.1 mph - N/A   Mostly Cloudy
11:38 AM 73.4 °F - 66.2 °F 78% 29.95 in 10.0 mi SSE 11.5 mph - N/A   Mostly Cloudy
11:53 AM 75.2 °F - 66.2 °F 73% 29.94 in 10.0 mi SSE 12.7 mph - N/A   Mostly Cloudy
11:58 AM 75.2 °F - 66.2 °F 73% 29.93 in 10.0 mi SSE 10.4 mph - N/A   Mostly Cloudy
12:18 PM 75.2 °F - 66.2 °F 73% 29.94 in 10.0 mi Variable 5.8 mph - N/A   Mostly Cloudy
12:58 PM 78.1 °F - 65.3 °F 65% 29.91 in 10.0 mi Variable 6.9 mph - N/A   Clear
1:58 PM 79.0 °F - 64.4 °F 61% 29.90 in 10.0 mi South 10.4 mph - N/A   Scattered Clouds
2:58 PM 80.4 °F 81.8 °F 63.3 °F 56% 29.88 in 10.0 mi Variable 4.6 mph - N/A   Clear
3:58 PM 82.2 °F 83.0 °F 62.1 °F 50% 29.86 in 10.0 mi South 8.1 mph - N/A   Scattered Clouds
4:58 PM 83.5 °F 83.9 °F 61.5 °F 47% 29.83 in 10.0 mi South 8.1 mph - N/A   Partly Cloudy
5:58 PM 82.2 °F 82.7 °F 61.0 °F 48% 29.81 in 10.0 mi SSE 10.4 mph - N/A   Clear
6:58 PM 79.7 °F - 60.6 °F 52% 29.81 in 10.0 mi SSE 10.4 mph 18.4 mph N/A   Clear
7:58 PM 77.4 °F - 61.0 °F 57% 29.82 in 10.0 mi SSE 9.2 mph - N/A   Clear
8:58 PM 74.1 °F - 62.4 °F 67% 29.81 in 10.0 mi SSE 10.4 mph - N/A   Clear
9:58 PM 73.9 °F - 65.8 °F 76% 29.84 in 10.0 mi South 11.5 mph 23.0 mph N/A   Clear
10:58 PM 72.7 °F - 66.6 °F 81% 29.86 in 10.0 mi South 11.5 mph 18.4 mph N/A   Clear
11:58 PM 72.0 °F - 66.2 °F 82% 29.87 in 10.0 mi South 11.5 mph 19.6 mph N/A   Scattered Clouds